Location: Unspecified
(0.0000°N, 0.0000°E)
Time: 17:56:55
(UTC+00:00)

STARLINK 1058 - Pass Details

Date: 23 January 2020
Orbit: 548 x 551 km, 53.0° (Epoch: 17 January)

Event Time Altitude Azimuth Distance (km) Brightness Sun altitude
Exits shadow 03:42:36 15° 100° (E) 1,505 6.5 -34.8°
Drops below altitude 10° 03:44:01 10° 82° (E) 1,813 6.8 -34.5°
Sets 03:46:49 0° 62° (ENE) 2,702 7.6 -33.8°
